User: anonymous   Login
Location: 22
(39.7117°N, 89.5929°W)
Time: 01:19:27
(UTC-05:00)
Language:

A-11 Canister half - Orbit

View from above orbital plane
View from above orbital plane
View from above satellite
View from above satellite

Ground track
Ground track

The orbit data is extracted from the following two-line orbital elements,

1    53U 60009E   24202.63436708 -.00000073  00000-0  11375-3 0  9991
2    53  47.2793 330.9020 0100666 176.5847 183.5647 12.17341233850572
Epoch (UTC): 20 July 2024 15:13:29
Eccentricity: 0.0100666
inclination: 47.2793°
perigee height: 1524 km
apogee height: 1684 km
right ascension of ascending node: 330.9020°
argument of perigee: 176.5847°
revolutions per day: 12.17341233
mean anomaly at epoch: 183.5647°
orbit number at epoch: 85057

The dashed part of the orbit path shows where the satellite is in the earth's shadow,  

DLR